Welcome to the New NWS' Forecast!
Most changes are behind the scenes, but click here for differences you might notice.

Regional Weather Roundup (RWR)

Issued by Gray - Portland, ME (GYX)

                            
255 
ASUS41 KGYX 151010
RWRGYX
WEATHER ROUNDUP FOR MAINE AND NEW HAMPSHIRE
NATIONAL WEATHER SERVICE GRAY ME
600 AM EDT WED AUG 15 2018

MEZ002-005-006-010-012-015-018-020-021-024-026-027-029-151100-
MAINE
  
CITY           SKY/WX    TMP DP  RH WIND       PRES   REMARKS
PORTLAND       CLOUDY    69  69 100 S3        29.81S FOG              
SANFORD        CLOUDY    68  68 100 CALM      29.82R FOG              
BAR HARBOR     CLOUDY    67  67 100 S8        29.82R FOG              
WISCASSET      CLOUDY    69  69 100 CALM      29.82R FOG              
ROCKLAND       FOG       66  66 100 CALM      29.81R VSB 1/4          
FRYEBURG       CLOUDY    69  69 100 CALM      29.82S                  
LEWISTONAUBURN CLOUDY    69  68  96 MISG      29.82R                  
AUGUSTA        CLOUDY    68  68 100 CALM      29.82S                  
WATERVILLE     FOG       68  68 100 CALM      29.80R VSB<1/4          
BANGOR         CLOUDY    70  70 100 S3        29.81S FOG              
GREENVILLE       N/A     66  65  96 CALM      29.82S                  
MILLINOCKET    CLOUDY    70  67  90 CALM      29.82R                  
HOULTON        CLOUDY    69  68  96 SW6       29.79R                  
PRESQUE ISLE   MOCLDY    69  67  93 S6        29.78S                  
FRENCHVILLE    FAIR      69  65  86 SW3       29.76S                  
CARIBOU        CLOUDY    70  67  90 SW7       29.77R                  
$$

NHZ002-005-008-009-011-012-014-151100-
NEW HAMPSHIRE
  
CITY           SKY/WX    TMP DP  RH WIND       PRES   REMARKS
PORTSMOUTH     FOG       69  69  99 CALM      29.80R VSB 1            
ROCHESTER      CLOUDY    69  69 100 CALM      29.81S FOG              
MANCHESTER     NOT AVBL                                               
CONCORD        CLOUDY    69  68  96 CALM      29.82R                  
LACONIA        CLOUDY    67  66  97 SW3       29.83R                  
PLYMOUTH       CLOUDY    65  64  96 CALM      29.82S FOG              
BERLIN         FOG       64  64 100 N5        29.85R VSB 1/4          
WHITEFIELD     LGT RAIN  59  58  96 CALM      29.84R FOG              
JAFFREY        NOT AVBL                                               
LEBANON        FOG       67  64  90 CALM      29.83R VSB 3/4          
MT WASHINGTON  PTCLDY    52  48  87 W10         N/A                   
$$

VTZ005-007-008-151100-
VERMONT
  
CITY           SKY/WX    TMP DP  RH WIND       PRES   REMARKS
ST JOHNSBURY     N/A     65  65 100 MISG      29.82R                  
MONTPELIER     CLOUDY    64  64 100 CALM      29.88R FOG              
BURLINGTON     LGT RAIN  69  65  86 W3        29.82R                  
$$

MAZ007-012-024-CTZ003-RIZ002-NYZ038-NYZ072-151100-
SOUTHERN NEW ENGLAND AND NY
  
CITY           SKY/WX    TMP DP  RH WIND       PRES   REMARKS
BOSTON         MOCLDY    72  69  90 S5        29.81S                  
WORCESTER      FAIR      66  66 100 SW7       29.84S                  
NANTUCKET      FAIR      71  71 100 SW8       29.84R                  
PROVIDENCE     MOCLDY    69  68  96 CALM      29.83R                  
HARTFORD       FOG       68  67  96 W6        29.83R VSB 1/2          
ALBANY         FAIR      68  64  87 S3        29.84R                  
NEW YORK CITY  FAIR      73  65  75 W9        29.84S                  
$$

ANZ081-ANZ082-ANZ150-NHZ014-MEZ023>029-151100-
COASTAL MARINE OBSERVATIONS
  
STATION/POSITION TIME  TEMP    WIND        PRES    WAVE
                       AIR SEA DIR/SP/G            HT/PER
                 (UTC) (F)     (DEG/KT/KT) (MB)    (FT/S)
MOUNT DESERT ROC 1000   66     160/ 15/ 16 1010.0R
MATINICUS ROCK   0900   65     180/ 15/ 15 1009.1F
ISLE OF SHOALS   0900   68     100/  3/  3 1008.7F
JEFFREYS LEDGE   0936      69                N/A     2/ 8
$$

.............KEY..............
   WCI - WIND CHILL
   TC  - TEMPERATURE IN CELSIUS
   VSB - VISIBILITY IN MILES
   HX  - HEAT INDEX
   FAIR- INDICATES FEW OR NO CLOUDS BELOW 12,000 FT, WITH NO 
         SIGNIFICANT WEATHER AND/OR OBSTRUCTIONS TO VISIBILITY.